QPF
0.00 0.00 0.00 0.00 0.00 0.00 0.00 0.00 0.00 0.00 0.00 0.00 0.00 0.00 0.00 0.00 0.00 0.00 0.00 0.00 0.00 0.00 0.00 0.00 0.00 0.00 0.00 0.00 0.00 0.00 0.00 0.00 0.00 0.00 0.00 0.00 0.00 0.00 0.00 0.00 0.00 0.00 0.00 0.01 0.01 0.01 0.01 0.01 0.01
0.00 0.00 0.00 0.00 0.00 0.00 0.00 0.00 0.00 0.00 0.00 0.00 0.00 0.00 0.00 0.00 0.00 0.00 0.00 0.00 0.00 0.00 0.00 0.00 0.00 0.00 0.00 0.00 0.00 0.00 0.00 0.00 0.00 0.00 0.00 0.00 0.00 0.00 0.00 0.00 0.00 0.00 0.00 0.00 0.00 0.00 0.00 0.00 0.00
0.00 0.00 0.00 0.00 0.00 0.00 0.00 0.00 0.00 0.00 0.00 0.00 0.00 0.00 0.00 0.00 0.00 0.00 0.00 0.00 0.00 0.00 0.00 0.00 0.00 0.00 0.00 0.00 0.00 0.00 0.00 0.00 0.00 0.00 0.00 0.00 0.00 0.00 0.00 0.00 0.00 0.00 0.00 0.00 0.00 0.00 0.00 0.00 0.00
0.00 0.00 0.00 0.00 0.00 0.00 0.00 0.00 0.00 0.00 0.00 0.00 0.00 0.00 0.00 0.00 0.00 0.00 0.00 0.00 0.00 0.00 0.00 0.00 0.00 0.00 0.00 0.00 0.00 0.00 0.00 0.00 0.00 0.00 0.00 0.00 0.00 0.00 0.00 0.00 0.00 0.00 0.00 0.00 0.00 0.00 0.00 0.00 0.00
0.00 0.00 0.00 0.00 0.00 0.00 0.00 0.00 0.00 0.00 0.00 0.00 0.00 0.00 0.00 0.00 0.00 0.00 0.00 0.00 0.00 0.00 0.00 0.00 0.00 0.00 0.00 0.00 0.00 0.00 0.00 0.00 0.00 0.00 0.00 0.00 0.00 0.00 0.00 0.00 0.00 0.00 0.00 0.00 0.00 0.00 0.00 0.00 0.00
0.00 0.00 0.00 0.00 0.00 0.00 0.00 0.00 0.00 0.00 0.00 0.00 0.00 0.00 0.00 0.00 0.00 0.00 0.00 0.00 0.00 0.00 0.00 0.00 0.00 0.00 0.00 0.00 0.00 0.00 0.00 0.00 0.00 0.00 0.00 0.00 0.00 0.00 0.00 0.00 0.00 0.00 0.00 0.00 0.00 0.00 0.00 0.00 0.00
0.00 0.00 0.00 0.00 0.00 0.00 0.00 0.00 0.00 0.00 0.00 0.00 0.00 0.00 0.00 0.00 0.00 0.00 0.00 0.00 0.00 0.00 0.00 0.00 0.00 0.00 0.00 0.00 0.00 0.00 0.00 0.00 0.00 0.00 0.00 0.00 0.00 0.00 0.00 0.00 0.00 0.00 0.00 0.00 0.00 0.00 0.00 0.00 0.00
0.00 0.00 0.00 0.00 0.00 0.00 0.00 0.00 0.00 0.00 0.00 0.00 0.00 0.00 0.00 0.00 0.00 0.00 0.00 0.00 0.00 0.00 0.00 0.00 0.00 0.00 0.00 0.00 0.00 0.00 0.00 0.00 0.00 0.00 0.00 0.00 0.00 0.00 0.00 0.00 0.00 0.00 0.00 0.00 0.00 0.00 0.00 0.00 0.00
0.00 0.00 0.00 0.00 0.00 0.00 0.00 0.00 0.00 0.00 0.00 0.00 0.00 0.00 0.00 0.00 0.00 0.00 0.00 0.00 0.00 0.00 0.00 0.00 0.00 0.00 0.00 0.00 0.00 0.00 0.00 0.00 0.00 0.00 0.00 0.00 0.00 0.00 0.00 0.00 0.00 0.00 0.00 0.00 0.00 0.00 0.00 0.00 0.00
0.00 0.00 0.00 0.00 0.00 0.00 0.00 0.00 0.00 0.00 0.00 0.00 0.00 0.00 0.00 0.00 0.00 0.00 0.00 0.00 0.00 0.00 0.00 0.00 0.00 0.00 0.00 0.00 0.00 0.00 0.00 0.00 0.00 0.00 0.00 0.00 0.00 0.00 0.00 0.00 0.00 0.00 0.00 0.00 0.00 0.00 0.00 0.00 0.00
0.00 0.00 0.00 0.00 0.00 0.00 0.00 0.00 0.00 0.00 0.00 0.00 0.00 0.00 0.00 0.00 0.00 0.00 0.00 0.00 0.00 0.00 0.00 0.00 0.00 0.00 0.00 0.00 0.00 0.00 0.00 0.00 0.00 0.00 0.00 0.00 0.00 0.00 0.00 0.00 0.00 0.00 0.00 0.00 0.00 0.00 0.00 0.00 0.00
0.00 0.00 0.00 0.00 0.00 0.00 0.00 0.00 0.00 0.00 0.00 0.00 0.00 0.00 0.00 0.00 0.00 0.00 0.00 0.00 0.00 0.00 0.00 0.00 0.00 0.00 0.00 0.00 0.00 0.00 0.00 0.00 0.00 0.00 0.00 0.00 0.00 0.00 0.00 0.00 0.00 0.00 0.00 0.00 0.00 0.00 0.00 0.00 0.00
0.00 0.00 0.00 0.00 0.00 0.00 0.00 0.00 0.00 0.00 0.00 0.00 0.00 0.00 0.00 0.00 0.00 0.00 0.00 0.00 0.00 0.00 0.00 0.00 0.00 0.00 0.00 0.00 0.00 0.00 0.00 0.00 0.00 0.00 0.00 0.00 0.00 0.00 0.00 0.00 0.00 0.00 0.00 0.00 0.00 0.00 0.00 0.00 0.00
0.00 0.00 0.00 0.00 0.00 0.00 0.00 0.00 0.00 0.00 0.00 0.00 0.00 0.00 0.00 0.00 0.00 0.00 0.00 0.00 0.00 0.00 0.00 0.00 0.00 0.00 0.00 0.00 0.00 0.00 0.00 0.00 0.00 0.00 0.00 0.00 0.00 0.00 0.00 0.00 0.00 0.00 0.00 0.00 0.00 0.00 0.00 0.00 0.00
0.00 0.00 0.00 0.00 0.00 0.00 0.00 0.00 0.00 0.00 0.00 0.00 0.00 0.00 0.00 0.00 0.00 0.00 0.00 0.00 0.00 0.00 0.00 0.00 0.00 0.00 0.00 0.00 0.00 0.00 0.00 0.00 0.00 0.00 0.00 0.00 0.00 0.00 0.00 0.00 0.00 0.00 0.00 0.00 0.00 0.00 0.00 0.00 0.00
0.00 0.00 0.00 0.00 0.00 0.00 0.00 0.00 0.00 0.00 0.00 0.00 0.00 0.00 0.00 0.00 0.00 0.00 0.00 0.00 0.00 0.00 0.00 0.00 0.00 0.00 0.00 0.00 0.00 0.00 0.00 0.00 0.00 0.00 0.00 0.00 0.00 0.00 0.00 0.00 0.00 0.00 0.00 0.00 0.00 0.00 0.00 0.00 0.00
0.00 0.00 0.00 0.00 0.00 0.00 0.00 0.00 0.00 0.00 0.00 0.00 0.00 0.00 0.00 0.00 0.00 0.00 0.00 0.00 0.00 0.00 0.00 0.00 0.00 0.00 0.00 0.00 0.00 0.00 0.00 0.00 0.00 0.00 0.00 0.00 0.00 0.00 0.00 0.00 0.00 0.00 0.00 0.00 0.00 0.00 0.00 0.00 0.00
0.00 0.00 0.00 0.00 0.00 0.00 0.00 0.00 0.00 0.00 0.00 0.00 0.00 0.00 0.00 0.00 0.00 0.00 0.00 0.00 0.00 0.00 0.00 0.00 0.00 0.00 0.00 0.00 0.00 0.00 0.00 0.00 0.00 0.00 0.00 0.00 0.00 0.00 0.00 0.00 0.00 0.00 0.00 0.00 0.00 0.00 0.00 0.00 0.00
0.00 0.00 0.00 0.00 0.00 0.00 0.00 0.00 0.00 0.00 0.00 0.00 0.00 0.00 0.00 0.00 0.00 0.00 0.00 0.00 0.00 0.00 0.00 0.00 0.00 0.00 0.00 0.00 0.00 0.00 0.00 0.00 0.00 0.00 0.00 0.00 0.00 0.00 0.00 0.00 0.00 0.00 0.00 0.00 0.00 0.00 0.00 0.00 0.00
0.00 0.00 0.00 0.00 0.00 0.00 0.00 0.00 0.00 0.00 0.00 0.00 0.00 0.00 0.00 0.00 0.00 0.00 0.00 0.00 0.00 0.00 0.00 0.00 0.00 0.00 0.00 0.00 0.00 0.00 0.00 0.00 0.00 0.00 0.00 0.00 0.00 0.00 0.00 0.00 0.00 0.00 0.00 0.00 0.00 0.00 0.00 0.00 0.00
0.00 0.00 0.00 0.00 0.00 0.00 0.00 0.00 0.00 0.00 0.00 0.00 0.00 0.00 0.00 0.00 0.00 0.00 0.00 0.00 0.00 0.00 0.00 0.00 0.00 0.00 0.00 0.00 0.00 0.00 0.00 0.00 0.00 0.00 0.00 0.00 0.00 0.00 0.00 0.00 0.00 0.00 0.00 0.00 0.00 0.00 0.00 0.00 0.00
0.00 0.00 0.00 0.00 0.00 0.00 0.00 0.00 0.00 0.00 0.00 0.00 0.00 0.00 0.00 0.00 0.00 0.00 0.00 0.00 0.00 0.00 0.00 0.00 0.00 0.00 0.00 0.00 0.00 0.00 0.00 0.00 0.00 0.00 0.00 0.00 0.00 0.00 0.00 0.00 0.00 0.00 0.00 0.00 0.00 0.00 0.00 0.00 0.00
0.00 0.00 0.00 0.00 0.00 0.00 0.00 0.00 0.00 0.00 0.00 0.00 0.00 0.00 0.00 0.00 0.00 0.00 0.00 0.00 0.00 0.00 0.00 0.00 0.00 0.00 0.00 0.00 0.00 0.00 0.00 0.00 0.00 0.00 0.00 0.00 0.00 0.00 0.00 0.00 0.00 0.00 0.00 0.00 0.00 0.00 0.00 0.00 0.00
0.00 0.00 0.00 0.00 0.00 0.00 0.00 0.00 0.00 0.00 0.00 0.00 0.00 0.00 0.00 0.00 0.00 0.00 0.00 0.00 0.00 0.00 0.00 0.00 0.00 0.00 0.00 0.00 0.00 0.00 0.00 0.00 0.00 0.00 0.00 0.00 0.00 0.00 0.00 0.00 0.00 0.00 0.00 0.00 0.00 0.00 0.00 0.00 0.00
0.00 0.00 0.00 0.00 0.00 0.00 0.00 0.00 0.00 0.00 0.00 0.00 0.00 0.00 0.00 0.00 0.00 0.00 0.00 0.00 0.00 0.00 0.00 0.00 0.00 0.00 0.00 0.00 0.00 0.00 0.00 0.00 0.00 0.00 0.00 0.00 0.00 0.00 0.00 0.00 0.00 0.00 0.00 0.00 0.00 0.00 0.00 0.00 0.00
0.00 0.00 0.00 0.00 0.00 0.00 0.00 0.00 0.00 0.00 0.00 0.00 0.00 0.00 0.00 0.00 0.00 0.00 0.00 0.00 0.00 0.00 0.00 0.00 0.00 0.00 0.00 0.00 0.00 0.00 0.00 0.00 0.00 0.00 0.00 0.00 0.00 0.00 0.00 0.00 0.00 0.00 0.00 0.00 0.00 0.00 0.00 0.00 0.00
0.00 0.00 0.00 0.00 0.00 0.00 0.00 0.00 0.00 0.00 0.00 0.00 0.00 0.00 0.00 0.00 0.00 0.00 0.00 0.00 0.00 0.00 0.00 0.00 0.00 0.00 0.00 0.00 0.00 0.00 0.00 0.00 0.00 0.00 0.00 0.00 0.00 0.00 0.00 0.00 0.00 0.00 0.00 0.00 0.00 0.00 0.00 0.00 0.00
0.00 0.00 0.00 0.00 0.00 0.00 0.00 0.00 0.00 0.00 0.00 0.00 0.00 0.00 0.00 0.00 0.00 0.00 0.00 0.00 0.00 0.00 0.00 0.00 0.00 0.00 0.00 0.00 0.00 0.00 0.00 0.00 0.00 0.00 0.00 0.00 0.00 0.00 0.00 0.00 0.00 0.00 0.00 0.00 0.00 0.00 0.00 0.00 0.00
0.00 0.00 0.00 0.00 0.00 0.00 0.00 0.00 0.00 0.00 0.00 0.00 0.00 0.00 0.00 0.00 0.00 0.00 0.00 0.00 0.00 0.00 0.00 0.00 0.00 0.00 0.00 0.00 0.00 0.00 0.00 0.00 0.00 0.00 0.00 0.00 0.00 0.00 0.00 0.00 0.00 0.00 0.00 0.00 0.00 0.00 0.00 0.00 0.00
0.00 0.00 0.00 0.00 0.00 0.00 0.00 0.00 0.00 0.00 0.00 0.00 0.00 0.00 0.00 0.00 0.00 0.00 0.00 0.00 0.00 0.00 0.00 0.00 0.00 0.00 0.00 0.00 0.00 0.00 0.00 0.00 0.00 0.00 0.00 0.00 0.00 0.00 0.00 0.00 0.00 0.00 0.00 0.01 0.01 0.01 0.01 0.00 0.00
MSLP
1016.69 1016.93 1017.36 1017.98 1018.75 1019.59 1020.44 1021.22 1021.85 1022.30 1022.56 1022.67 1022.69 1022.67 1022.69 1022.79 1023.01 1023.34 1023.74 1024.19 1024.64 1025.06 1025.45 1025.80 1026.13 1026.44 1026.76 1027.06 1027.33 1027.54 1027.68 1027.73 1027.70 1027.60 1027.48 1027.38 1027.31 1027.30 1027.34 1027.40 1027.45 1027.47 1027.42 1027.32 1027.18 1027.03 1026.91 1026.84 1026.83
1016.87 1017.21 1017.74 1018.43 1019.24 1020.08 1020.89 1021.58 1022.10 1022.42 1022.56 1022.58 1022.53 1022.48 1022.50 1022.64 1022.89 1023.26 1023.69 1024.16 1024.61 1025.02 1025.39 1025.73 1026.06 1026.38 1026.71 1027.04 1027.35 1027.62 1027.82 1027.93 1027.95 1027.92 1027.85 1027.78 1027.73 1027.72 1027.74 1027.77 1027.78 1027.76 1027.69 1027.57 1027.43 1027.28 1027.17 1027.10 1027.08
1017.14 1017.55 1018.14 1018.85 1019.64 1020.43 1021.14 1021.71 1022.11 1022.32 1022.37 1022.33 1022.26 1022.23 1022.31 1022.51 1022.84 1023.27 1023.75 1024.24 1024.70 1025.11 1025.47 1025.78 1026.09 1026.40 1026.72 1027.06 1027.39 1027.69 1027.93 1028.09 1028.18 1028.21 1028.19 1028.16 1028.14 1028.13 1028.12 1028.12 1028.09 1028.03 1027.92 1027.78 1027.63 1027.49 1027.38 1027.31 1027.30
1017.49 1017.95 1018.54 1019.22 1019.94 1020.62 1021.20 1021.64 1021.91 1022.01 1022.00 1021.94 1021.90 1021.94 1022.10 1022.39 1022.81 1023.31 1023.85 1024.37 1024.85 1025.25 1025.59 1025.88 1026.16 1026.45 1026.75 1027.08 1027.41 1027.72 1027.99 1028.20 1028.35 1028.44 1028.48 1028.50 1028.51 1028.51 1028.50 1028.47 1028.41 1028.31 1028.18 1028.02 1027.86 1027.72 1027.61 1027.55 1027.54
1017.89 1018.36 1018.91 1019.52 1020.12 1020.66 1021.09 1021.39 1021.54 1021.57 1021.53 1021.49 1021.51 1021.63 1021.89 1022.29 1022.79 1023.36 1023.94 1024.49 1024.96 1025.35 1025.68 1025.95 1026.21 1026.47 1026.76 1027.07 1027.39 1027.70 1027.99 1028.24 1028.44 1028.59 1028.70 1028.78 1028.84 1028.87 1028.88 1028.84 1028.77 1028.65 1028.50 1028.33 1028.17 1028.02 1027.92 1027.86 1027.84
1018.30 1018.75 1019.24 1019.74 1020.20 1020.59 1020.87 1021.03 1021.08 1021.07 1021.03 1021.03 1021.13 1021.35 1021.71 1022.19 1022.76 1023.37 1023.96 1024.51 1024.97 1025.35 1025.66 1025.92 1026.17 1026.42 1026.70 1026.99 1027.31 1027.63 1027.93 1028.21 1028.46 1028.67 1028.85 1029.00 1029.12 1029.20 1029.24 1029.22 1029.16 1029.04 1028.89 1028.72 1028.56 1028.42 1028.32 1028.25 1028.22
1018.67 1019.09 1019.51 1019.89 1020.22 1020.45 1020.59 1020.64 1020.63 1020.59 1020.58 1020.64 1020.82 1021.12 1021.55 1022.09 1022.69 1023.30 1023.88 1024.39 1024.83 1025.19 1025.49 1025.75 1026.00 1026.27 1026.55 1026.86 1027.18 1027.50 1027.83 1028.13 1028.42 1028.69 1028.94 1029.16 1029.35 1029.49 1029.57 1029.59 1029.55 1029.45 1029.32 1029.16 1029.01 1028.87 1028.76 1028.68 1028.63
1019.01 1019.38 1019.72 1020.00 1020.20 1020.31 1020.33 1020.29 1020.23 1020.18 1020.20 1020.32 1020.56 1020.93 1021.41 1021.96 1022.55 1023.13 1023.66 1024.13 1024.52 1024.86 1025.16 1025.44 1025.72 1026.02 1026.33 1026.66 1027.01 1027.35 1027.69 1028.03 1028.36 1028.67 1028.98 1029.26 1029.51 1029.70 1029.84 1029.90 1029.89 1029.82 1029.71 1029.57 1029.42 1029.29 1029.18 1029.09 1029.02
1019.29 1019.63 1019.90 1020.08 1020.17 1020.17 1020.11 1020.00 1019.90 1019.85 1019.90 1020.06 1020.34 1020.74 1021.23 1021.76 1022.31 1022.82 1023.29 1023.70 1024.06 1024.38 1024.69 1025.00 1025.34 1025.69 1026.06 1026.44 1026.82 1027.19 1027.56 1027.92 1028.27 1028.62 1028.97 1029.29 1029.58 1029.82 1030.00 1030.09 1030.11 1030.07 1029.98 1029.86 1029.73 1029.61 1029.50 1029.41 1029.32
1019.54 1019.84 1020.05 1020.16 1020.16 1020.08 1019.93 1019.77 1019.63 1019.56 1019.61 1019.78 1020.07 1020.47 1020.93 1021.42 1021.91 1022.35 1022.76 1023.12 1023.45 1023.78 1024.12 1024.48 1024.88 1025.31 1025.75 1026.18 1026.61 1027.01 1027.40 1027.78 1028.16 1028.53 1028.89 1029.24 1029.55 1029.81 1030.01 1030.12 1030.16 1030.14 1030.07 1029.98 1029.87 1029.77 1029.67 1029.58 1029.49
1019.76 1020.03 1020.19 1020.24 1020.17 1020.01 1019.79 1019.55 1019.36 1019.25 1019.26 1019.40 1019.66 1020.02 1020.43 1020.87 1021.30 1021.69 1022.05 1022.39 1022.72 1023.08 1023.47 1023.90 1024.38 1024.88 1025.39 1025.89 1026.37 1026.80 1027.22 1027.61 1027.98 1028.36 1028.72 1029.07 1029.39 1029.65 1029.84 1029.96 1030.01 1030.01 1029.96 1029.89 1029.82 1029.75 1029.67 1029.60 1029.52
1019.96 1020.20 1020.32 1020.30 1020.17 1019.93 1019.63 1019.31 1019.03 1018.84 1018.77 1018.84 1019.03 1019.32 1019.67 1020.06 1020.45 1020.82 1021.17 1021.52 1021.89 1022.30 1022.75 1023.27 1023.83 1024.41 1024.99 1025.54 1026.06 1026.52 1026.95 1027.34 1027.72 1028.08 1028.44 1028.78 1029.08 1029.33 1029.51 1029.63 1029.68 1029.69 1029.67 1029.63 1029.59 1029.56 1029.53 1029.49 1029.43
1020.13 1020.33 1020.40 1020.34 1020.13 1019.81 1019.41 1018.99 1018.59 1018.28 1018.09 1018.04 1018.13 1018.34 1018.63 1018.98 1019.35 1019.73 1020.12 1020.52 1020.95 1021.44 1021.98 1022.58 1023.21 1023.86 1024.50 1025.09 1025.64 1026.12 1026.56 1026.95 1027.33 1027.68 1028.03 1028.35 1028.63 1028.87 1029.04 1029.16 1029.22 1029.24 1029.24 1029.24 1029.26 1029.27 1029.29 1029.30 1029.27
1020.25 1020.41 1020.43 1020.31 1020.03 1019.62 1019.11 1018.55 1018.01 1017.54 1017.20 1017.01 1016.98 1017.09 1017.33 1017.65 1018.04 1018.47 1018.92 1019.40 1019.93 1020.51 1021.14 1021.81 1022.51 1023.21 1023.88 1024.51 1025.07 1025.57 1026.01 1026.41 1026.78 1027.14 1027.48 1027.79 1028.08 1028.31 1028.48 1028.60 1028.67 1028.72 1028.76 1028.80 1028.86 1028.94 1029.01 1029.05 1029.06
1020.30 1020.41 1020.38 1020.20 1019.85 1019.35 1018.72 1018.02 1017.32 1016.68 1016.16 1015.82 1015.66 1015.68 1015.87 1016.19 1016.61 1017.10 1017.64 1018.22 1018.85 1019.51 1020.22 1020.96 1021.70 1022.43 1023.13 1023.76 1024.33 1024.84 1025.29 1025.70 1026.08 1026.45 1026.81 1027.14 1027.43 1027.68 1027.87 1028.01 1028.11 1028.19 1028.27 1028.36 1028.47 1028.59 1028.70 1028.78 1028.81
1020.26 1020.32 1020.25 1020.02 1019.60 1019.01 1018.27 1017.43 1016.57 1015.76 1015.07 1014.57 1014.29 1014.23 1014.37 1014.70 1015.15 1015.71 1016.34 1017.02 1017.73 1018.47 1019.24 1020.01 1020.78 1021.53 1022.23 1022.87 1023.44 1023.95 1024.42 1024.84 1025.25 1025.64 1026.02 1026.38 1026.71 1026.99 1027.22 1027.40 1027.55 1027.67 1027.79 1027.92 1028.07 1028.23 1028.37 1028.48 1028.52
1020.15 1020.16 1020.05 1019.78 1019.31 1018.65 1017.81 1016.85 1015.84 1014.88 1014.04 1013.40 1013.01 1012.87 1012.99 1013.31 1013.80 1014.42 1015.11 1015.85 1016.62 1017.41 1018.20 1018.99 1019.76 1020.51 1021.20 1021.84 1022.42 1022.94 1023.42 1023.87 1024.30 1024.72 1025.14 1025.54 1025.92 1026.25 1026.54 1026.77 1026.97 1027.14 1027.31 1027.47 1027.65 1027.83 1028.00 1028.11 1028.16
1019.98 1019.96 1019.83 1019.53 1019.03 1018.31 1017.40 1016.34 1015.22 1014.13 1013.17 1012.42 1011.93 1011.74 1011.82 1012.13 1012.64 1013.29 1014.01 1014.78 1015.56 1016.35 1017.14 1017.91 1018.67 1019.40 1020.08 1020.72 1021.31 1021.84 1022.34 1022.80 1023.26 1023.71 1024.16 1024.60 1025.03 1025.42 1025.77 1026.07 1026.33 1026.55 1026.76 1026.97 1027.17 1027.36 1027.54 1027.66 1027.70
1019.80 1019.77 1019.63 1019.33 1018.81 1018.06 1017.09 1015.96 1014.75 1013.57 1012.52 1011.69 1011.14 1010.89 1010.94 1011.24 1011.74 1012.37 1013.08 1013.82 1014.58 1015.33 1016.07 1016.81 1017.53 1018.24 1018.91 1019.55 1020.14 1020.69 1021.19 1021.67 1022.13 1022.60 1023.07 1023.55 1024.01 1024.46 1024.87 1025.24 1025.56 1025.84 1026.10 1026.34 1026.56 1026.77 1026.95 1027.07 1027.13
1019.66 1019.64 1019.51 1019.21 1018.69 1017.92 1016.92 1015.75 1014.47 1013.23 1012.11 1011.22 1010.63 1010.34 1010.35 1010.62 1011.08 1011.67 1012.32 1013.00 1013.68 1014.35 1015.02 1015.70 1016.38 1017.06 1017.72 1018.36 1018.95 1019.50 1020.01 1020.48 1020.94 1021.40 1021.87 1022.35 1022.84 1023.33 1023.80 1024.23 1024.62 1024.96 1025.27 1025.54 1025.79 1026.02 1026.21 1026.35 1026.43
1019.61 1019.62 1019.51 1019.23 1018.70 1017.92 1016.89 1015.67 1014.36 1013.07 1011.92 1011.00 1010.37 1010.06 1010.03 1010.26 1010.66 1011.17 1011.73 1012.30 1012.86 1013.43 1014.00 1014.61 1015.23 1015.88 1016.53 1017.17 1017.76 1018.31 1018.80 1019.25 1019.68 1020.10 1020.54 1021.01 1021.51 1022.02 1022.53 1023.02 1023.47 1023.88 1024.24 1024.56 1024.85 1025.10 1025.33 1025.51 1025.63
1019.67 1019.72 1019.64 1019.36 1018.83 1018.03 1016.96 1015.71 1014.36 1013.04 1011.87 1010.93 1010.29 1009.95 1009.90 1010.07 1010.40 1010.81 1011.25 1011.68 1012.12 1012.55 1013.02 1013.54 1014.11 1014.72 1015.36 1015.99 1016.58 1017.11 1017.58 1017.99 1018.36 1018.73 1019.12 1019.55 1020.03 1020.55 1021.10 1021.64 1022.15 1022.63 1023.05 1023.43 1023.76 1024.07 1024.34 1024.58 1024.77
1019.85 1019.93 1019.86 1019.58 1019.03 1018.19 1017.09 1015.79 1014.41 1013.07 1011.88 1010.94 1010.30 1009.95 1009.87 1009.99 1010.23 1010.53 1010.84 1011.14 1011.43 1011.73 1012.08 1012.51 1013.01 1013.59 1014.21 1014.83 1015.41 1015.93 1016.36 1016.72 1017.03 1017.33 1017.65 1018.04 1018.49 1019.01 1019.57 1020.16 1020.73 1021.27 1021.76 1022.20 1022.59 1022.96 1023.29 1023.60 1023.88
1020.09 1020.19 1020.13 1019.83 1019.24 1018.35 1017.19 1015.86 1014.45 1013.09 1011.90 1010.97 1010.33 1009.98 1009.87 1009.94 1010.11 1010.31 1010.49 1010.64 1010.79 1010.95 1011.19 1011.52 1011.97 1012.51 1013.10 1013.71 1014.27 1014.77 1015.16 1015.47 1015.71 1015.95 1016.21 1016.54 1016.96 1017.47 1018.05 1018.67 1019.29 1019.89 1020.44 1020.94 1021.40 1021.82 1022.22 1022.61 1022.96
1020.33 1020.44 1020.36 1020.02 1019.38 1018.43 1017.23 1015.85 1014.42 1013.07 1011.89 1010.98 1010.36 1010.02 1009.90 1009.93 1010.02 1010.12 1010.18 1010.20 1010.21 1010.25 1010.37 1010.62 1010.99 1011.49 1012.06 1012.64 1013.19 1013.66 1014.02 1014.28 1014.48 1014.65 1014.85 1015.14 1015.52 1016.02 1016.61 1017.26 1017.92 1018.57 1019.17 1019.72 1020.23 1020.70 1021.16 1021.61 1022.04
1020.49 1020.59 1020.47 1020.08 1019.39 1018.39 1017.15 1015.75 1014.32 1012.99 1011.85 1010.98 1010.39 1010.07 1009.94 1009.94 1009.97 1009.98 1009.93 1009.83 1009.71 1009.64 1009.66 1009.81 1010.12 1010.57 1011.10 1011.66 1012.19 1012.64 1012.97 1013.20 1013.36 1013.49 1013.66 1013.90 1014.26 1014.75 1015.33 1015.99 1016.67 1017.35 1017.98 1018.56 1019.10 1019.61 1020.11 1020.60 1021.09
1020.52 1020.58 1020.41 1019.97 1019.22 1018.19 1016.94 1015.55 1014.16 1012.88 1011.81 1011.00 1010.46 1010.16 1010.04 1010.01 1009.98 1009.91 1009.77 1009.56 1009.34 1009.15 1009.08 1009.15 1009.39 1009.77 1010.27 1010.79 1011.30 1011.73 1012.05 1012.26 1012.39 1012.50 1012.64 1012.86 1013.20 1013.66 1014.24 1014.89 1015.57 1016.25 1016.89 1017.48 1018.03 1018.55 1019.06 1019.57 1020.09
1020.37 1020.36 1020.14 1019.64 1018.87 1017.83 1016.61 1015.28 1013.97 1012.78 1011.80 1011.07 1010.59 1010.33 1010.21 1010.16 1010.09 1009.94 1009.71 1009.41 1009.09 1008.82 1008.65 1008.64 1008.80 1009.13 1009.57 1010.06 1010.53 1010.94 1011.24 1011.44 1011.56 1011.66 1011.79 1011.99 1012.31 1012.75 1013.30 1013.93 1014.59 1015.24 1015.86 1016.43 1016.97 1017.48 1017.99 1018.50 1019.03
1020.04 1019.95 1019.66 1019.12 1018.34 1017.34 1016.19 1014.96 1013.77 1012.71 1011.85 1011.22 1010.82 1010.60 1010.49 1010.41 1010.29 1010.08 1009.77 1009.39 1008.99 1008.63 1008.38 1008.30 1008.39 1008.65 1009.02 1009.46 1009.89 1010.26 1010.54 1010.73 1010.84 1010.93 1011.05 1011.25 1011.54 1011.95 1012.46 1013.05 1013.66 1014.27 1014.85 1015.39 1015.89 1016.38 1016.87 1017.37 1017.89
1019.55 1019.38 1019.02 1018.46 1017.70 1016.77 1015.72 1014.64 1013.60 1012.70 1011.98 1011.46 1011.14 1010.95 1010.84 1010.73 1010.56 1010.29 1009.92 1009.47 1009.00 1008.58 1008.27 1008.11 1008.12 1008.30 1008.60 1008.97 1009.34 1009.66 1009.91 1010.07 1010.17 1010.25 1010.35 1010.53 1010.79 1011.16 1011.63 1012.15 1012.71 1013.27 1013.80 1014.30 1014.77 1015.23 1015.69 1016.18 1016.68
Thickness
5734 5736 5739 5735 5723 5712 5704 5706 5707 5698 5699 5700 5698 5696 5697 5699 5697 5691 5678 5677 5675 5670 5665 5661 5656 5653 5650 5648 5645 5644 5643 5641 5640 5639 5638 5637 5637 5636 5635 5635 5635 5635 5636 5636 5636 5637 5638 5639 5639
5736 5739 5738 5730 5713 5701 5705 5711 5705 5705 5703 5695 5693 5694 5696 5701 5695 5686 5677 5674 5672 5669 5665 5662 5656 5652 5649 5646 5644 5642 5640 5638 5637 5635 5634 5633 5632 5631 5630 5629 5629 5629 5629 5629 5629 5630 5630 5631 5632
5739 5741 5733 5723 5710 5705 5708 5713 5712 5701 5695 5695 5694 5695 5699 5702 5694 5688 5682 5674 5671 5667 5664 5660 5655 5651 5648 5645 5642 5640 5637 5635 5633 5631 5630 5628 5627 5626 5625 5624 5623 5622 5622 5622 5622 5622 5622 5623 5624
5741 5737 5731 5719 5710 5715 5716 5715 5709 5697 5692 5693 5696 5697 5698 5696 5693 5688 5680 5673 5671 5667 5663 5658 5654 5650 5646 5643 5640 5637 5634 5632 5629 5627 5625 5624 5622 5620 5619 5618 5617 5616 5616 5615 5615 5614 5614 5614 5615
5742 5733 5720 5712 5713 5717 5716 5710 5705 5703 5701 5700 5696 5702 5704 5694 5688 5684 5678 5673 5670 5666 5661 5657 5652 5648 5644 5641 5637 5634 5632 5629 5626 5623 5621 5619 5617 5615 5613 5612 5611 5610 5609 5608 5607 5607 5606 5606 5607
5733 5729 5713 5708 5716 5719 5716 5709 5704 5704 5706 5700 5695 5700 5708 5691 5685 5681 5676 5671 5668 5664 5659 5654 5650 5646 5642 5639 5635 5632 5629 5625 5622 5619 5616 5614 5612 5610 5608 5606 5605 5604 5603 5602 5601 5600 5599 5599 5599
5728 5721 5712 5713 5714 5717 5717 5708 5705 5708 5706 5703 5701 5701 5708 5691 5685 5678 5673 5668 5665 5661 5656 5652 5650 5645 5640 5637 5633 5629 5626 5622 5619 5615 5612 5609 5606 5604 5602 5601 5599 5598 5597 5595 5594 5593 5592 5591 5591
5731 5722 5713 5713 5712 5716 5718 5706 5706 5705 5707 5707 5701 5703 5710 5697 5682 5675 5670 5666 5662 5658 5655 5651 5648 5645 5640 5635 5631 5627 5623 5619 5615 5611 5607 5604 5601 5599 5597 5595 5593 5592 5590 5589 5587 5586 5584 5583 5583
5727 5715 5709 5714 5713 5719 5713 5704 5704 5703 5705 5698 5700 5704 5695 5688 5678 5672 5667 5663 5660 5657 5654 5651 5647 5643 5639 5635 5630 5625 5621 5617 5612 5607 5603 5599 5597 5594 5592 5590 5587 5585 5583 5582 5580 5578 5577 5576 5575
5720 5710 5715 5721 5721 5718 5709 5706 5707 5698 5699 5700 5699 5696 5683 5679 5676 5673 5671 5669 5665 5661 5656 5651 5647 5642 5638 5633 5629 5625 5621 5616 5611 5607 5601 5597 5594 5590 5587 5583 5581 5578 5576 5574 5572 5570 5569 5568 5567
5716 5714 5717 5712 5710 5708 5705 5703 5703 5701 5704 5711 5712 5707 5688 5680 5678 5677 5677 5676 5672 5665 5657 5652 5647 5642 5637 5633 5628 5624 5619 5614 5609 5605 5599 5595 5590 5586 5583 5580 5576 5573 5570 5568 5565 5564 5561 5559 5556
5711 5711 5706 5708 5701 5700 5702 5703 5703 5702 5718 5723 5718 5713 5693 5686 5685 5684 5682 5680 5674 5667 5661 5654 5647 5642 5637 5633 5628 5624 5619 5613 5608 5603 5598 5593 5588 5584 5581 5577 5573 5569 5566 5562 5559 5556 5553 5550 5546
5707 5706 5701 5700 5696 5697 5698 5700 5703 5712 5717 5716 5709 5704 5697 5694 5693 5690 5688 5682 5676 5669 5664 5657 5649 5643 5637 5632 5628 5623 5619 5614 5608 5602 5597 5591 5587 5582 5578 5574 5569 5565 5561 5557 5553 5549 5545 5541 5537
5703 5701 5700 5698 5695 5695 5694 5702 5697 5717 5721 5716 5709 5706 5703 5701 5698 5694 5688 5685 5680 5674 5667 5659 5652 5645 5639 5633 5628 5623 5618 5613 5608 5602 5596 5590 5585 5580 5575 5570 5565 5561 5556 5551 5546 5541 5536 5532 5527
5696 5697 5703 5698 5694 5694 5690 5701 5707 5724 5720 5715 5714 5713 5710 5707 5703 5700 5697 5692 5687 5680 5671 5663 5655 5647 5640 5634 5628 5623 5618 5612 5607 5601 5595 5589 5583 5577 5572 5567 5562 5557 5550 5544 5539 5533 5527 5522 5518
5697 5698 5702 5703 5693 5689 5687 5709 5727 5730 5719 5718 5721 5721 5717 5714 5710 5708 5703 5696 5689 5682 5674 5667 5658 5650 5643 5636 5629 5623 5618 5612 5607 5601 5595 5588 5581 5574 5568 5563 5558 5552 5545 5539 5533 5526 5521 5515 5510
5699 5699 5700 5702 5693 5688 5687 5708 5730 5725 5715 5720 5727 5728 5725 5721 5716 5712 5706 5700 5692 5686 5678 5669 5661 5653 5645 5637 5630 5623 5618 5612 5606 5600 5594 5587 5579 5572 5565 5560 5554 5546 5539 5533 5526 5519 5513 5507 5501
5694 5695 5696 5696 5697 5684 5688 5706 5727 5729 5720 5722 5728 5731 5730 5726 5725 5718 5709 5702 5694 5687 5679 5671 5662 5654 5646 5636 5629 5623 5617 5611 5606 5600 5593 5586 5578 5570 5562 5555 5549 5541 5534 5527 5520 5513 5505 5497 5490
5687 5684 5688 5696 5694 5680 5691 5706 5724 5732 5727 5727 5728 5729 5730 5731 5729 5722 5713 5703 5694 5687 5680 5673 5665 5656 5647 5640 5633 5627 5621 5613 5606 5599 5592 5584 5577 5568 5559 5552 5545 5536 5530 5522 5514 5506 5498 5489 5480
5677 5677 5686 5695 5682 5676 5689 5702 5721 5728 5726 5726 5726 5727 5728 5728 5725 5720 5712 5703 5696 5689 5682 5674 5667 5659 5651 5645 5637 5630 5621 5614 5607 5598 5590 5583 5575 5567 5558 5549 5542 5533 5524 5516 5507 5498 5490 5482 5473
5675 5674 5682 5680 5682 5677 5673 5706 5724 5731 5725 5721 5720 5720 5721 5719 5719 5716 5709 5702 5694 5689 5683 5676 5669 5660 5652 5643 5632 5624 5617 5612 5606 5599 5591 5583 5574 5566 5557 5548 5538 5529 5520 5512 5502 5492 5483 5475 5467
5673 5675 5668 5664 5666 5678 5669 5679 5715 5723 5719 5721 5721 5720 5718 5716 5712 5709 5705 5699 5693 5687 5679 5673 5666 5658 5651 5640 5633 5627 5621 5618 5614 5604 5594 5583 5572 5564 5555 5545 5535 5526 5517 5508 5498 5487 5477 5467 5460
5670 5662 5661 5659 5659 5663 5668 5664 5700 5714 5714 5715 5715 5713 5711 5708 5706 5703 5700 5696 5691 5684 5676 5668 5661 5654 5647 5639 5632 5626 5622 5619 5611 5602 5594 5583 5573 5562 5553 5543 5533 5523 5514 5504 5493 5482 5471 5462 5453
5660 5657 5654 5651 5656 5659 5665 5662 5687 5710 5705 5703 5704 5704 5702 5701 5700 5698 5696 5692 5687 5681 5673 5665 5658 5653 5644 5637 5630 5625 5622 5616 5609 5603 5594 5583 5572 5561 5550 5539 5530 5521 5511 5499 5488 5476 5466 5455 5445
5655 5657 5661 5661 5661 5665 5652 5651 5679 5705 5700 5692 5689 5691 5692 5694 5693 5691 5690 5687 5683 5677 5671 5663 5657 5653 5645 5637 5630 5625 5619 5612 5606 5601 5591 5579 5570 5561 5550 5537 5528 5518 5507 5495 5482 5470 5460 5449 5438
5651 5650 5648 5643 5650 5659 5647 5652 5688 5703 5695 5686 5682 5683 5686 5687 5686 5684 5683 5681 5679 5674 5668 5662 5657 5652 5644 5636 5629 5620 5612 5604 5601 5594 5585 5576 5568 5558 5546 5533 5523 5514 5502 5489 5476 5464 5453 5441 5430
5645 5644 5640 5637 5638 5631 5651 5661 5679 5696 5692 5685 5682 5679 5677 5677 5676 5676 5675 5674 5672 5669 5664 5659 5653 5647 5640 5632 5623 5615 5606 5598 5592 5584 5576 5569 5561 5550 5538 5528 5517 5507 5495 5483 5470 5459 5447 5435 5423
5637 5637 5629 5628 5624 5628 5643 5648 5668 5682 5684 5678 5671 5667 5667 5667 5666 5666 5666 5665 5663 5660 5656 5652 5646 5640 5633 5624 5616 5608 5600 5592 5583 5574 5568 5561 5552 5541 5532 5522 5510 5499 5488 5477 5464 5453 5441 5428 5416
5627 5624 5625 5627 5623 5620 5627 5646 5671 5669 5667 5658 5655 5656 5656 5654 5653 5653 5653 5653 5651 5649 5645 5640 5634 5628 5622 5614 5607 5599 5591 5582 5574 5567 5561 5552 5543 5534 5524 5514 5503 5493 5482 5471 5459 5448 5435 5422 5409
5629 5630 5625 5620 5625 5615 5617 5639 5671 5663 5652 5643 5643 5644 5642 5639 5638 5639 5639 5640 5639 5636 5633 5628 5621 5615 5609 5603 5596 5589 5582 5574 5566 5561 5553 5543 5535 5526 5517 5507 5497 5487 5476 5466 5455 5443 5430 5416 5403